Location: Chapel Hill
(35.9134°N, 79.0560°W)
Time: 07:45:08
(UTC-04:00)

ACS3 Solar Sail - Pass Details

Date: 29 April 2025
Orbit: 935 x 1009 km, 97.5° (Epoch: 13 May)

Event Time Altitude Azimuth Distance (km) Brightness Sun altitude
Rises 05:49:21 0° 33° (NNE) 3,597 5.9 -7.7°
Reaches altitude 10° 05:53:00 10° 56° (NE) 2,650 5.8 -7.0°
Maximum altitude 05:56:15 15° 90° (E) 2,304 5.0 -6.4°
Drops below altitude 10° 05:59:31 10° 124° (SE) 2,654 4.6 -5.8°
Sets 06:03:09 0° 146° (SSE) 3,605 4.9 -5.1°
